Tracking 25710 objects as of 4-Jul-2022
HD Live streaming from Space Station
objects crossing your sky now

STARLINK-1496

Track STARLINK-1496 now!
10-day predictions
STARLINK-1496 is classified as:


NORAD ID: 45780
Int'l Code: 2020-038BC
Perigee: 553.1 km
Apogee: 555.7 km
Inclination: 53.1 °
Period: 95.6 minutes
Semi major axis: 6925 km
RCS: Unknown
Launch date: June 13, 2020
Source: United States (US)
Launch site: AIR FORCE EASTERN TEST RANGE (AFETR)
aabbcc
Your satellite tracking list
Your tracking list is empty




NASA's NSSDC Master Catalog

Two Line Element Set (TLE):
1 45780U 20038BC  22185.49726845 -.00003176  00000-0 -19453-3 0  9994
2 45780  53.0533 110.9366 0001870  66.0669 294.0516 15.06379310114143
Source of the keplerian elements: AFSPC